Location: Newark
(54.6833°N, 25.2833°E)
Time: 16:00:34
(UTC+00:00)

A-11 Canister half - Visible Passes

Search period start: 18 November 2019 00:00
Search period end: 28 November 2019 00:00
Orbit: 1514 x 1686 km, 47.2° (Epoch: 18 November)

Date Brightness Start Highest point End Pass type
(mag) Time Alt. Az. Time Alt. Az. Time Alt. Az.
18 Nov 9.7 16:28:55 10° SSW 16:37:56 39° SSE 16:42:12 28° ESE visible
18 Nov 9.4 18:31:57 10° WSW 18:40:24 53° SSW 18:40:24 53° SSW visible
18 Nov 10.8 20:36:15 10° W 20:38:36 19° W 20:38:36 19° W visible
19 Nov 9.8 16:06:10 10° SSW 16:15:04 37° SSE 16:20:32 22° E visible
19 Nov 9.2 18:09:04 10° WSW 18:18:44 56° S 18:18:44 56° S visible
19 Nov 10.5 20:13:19 10° W 20:16:55 25° WSW 20:16:55 25° WSW visible
20 Nov 9.9 15:43:24 10° SSW 15:52:13 36° SSE 15:58:52 17° E visible
20 Nov 9.2 17:46:11 10° WSW 17:55:58 55° S 17:57:03 53° SSE visible
20 Nov 10.3 19:50:23 10° W 19:55:15 31° WSW 19:55:15 31° WSW visible
21 Nov 10.0 15:20:41 10° SSW 15:29:22 35° SE 15:37:10 13° E visible
21 Nov 9.3 17:23:18 10° WSW 17:33:03 55° S 17:35:21 47° SE visible
21 Nov 10.0 19:27:27 10° W 19:33:33 38° WSW 19:33:33 38° WSW visible
22 Nov 10.1 14:57:58 10° SSW 15:06:30 33° SE 15:15:09 10° E visible
22 Nov 9.4 17:00:26 10° WSW 17:10:08 54° SSE 17:13:39 39° ESE visible
22 Nov 9.7 19:04:32 10° W 19:11:50 46° SW 19:11:50 46° SW visible
22 Nov 11.1 21:09:17 10° W 21:10:02 12° W 21:10:02 12° W visible
23 Nov 10.1 14:35:15 10° SSW 14:43:40 32° SE 14:52:11 10° E visible
23 Nov 9.4 16:37:33 10° WSW 16:47:14 53° SSE 16:51:56 32° ESE visible
23 Nov 9.5 18:41:37 10° W 18:50:08 52° SW 18:50:08 52° SW visible
23 Nov 10.9 20:46:19 10° W 20:48:19 17° W 20:48:19 17° W visible
24 Nov 9.5 16:14:42 10° WSW 16:24:20 53° SSE 16:30:14 26° ESE visible
24 Nov 9.3 18:18:41 10° W 18:28:26 56° S 18:28:26 56° S visible
24 Nov 10.7 20:23:20 10° W 20:26:37 21° W 20:26:37 21° W visible
25 Nov 9.6 15:51:51 10° SW 16:01:26 52° SSE 16:08:32 20° E visible
25 Nov 9.3 17:55:47 10° W 18:05:35 56° S 18:06:44 54° SSE visible
25 Nov 10.5 20:00:23 10° W 20:04:55 26° WSW 20:04:55 26° WSW visible
26 Nov 9.6 15:29:00 10° SW 15:38:32 51° SSE 15:46:51 15° E visible
26 Nov 9.3 17:32:52 10° W 17:42:40 57° S 17:45:02 48° SE visible
26 Nov 10.2 19:37:27 10° W 19:43:14 32° WSW 19:43:14 32° WSW visible
27 Nov 9.7 15:06:10 10° SW 15:15:39 50° SSE 15:25:11 10° E visible
27 Nov 9.4 17:09:58 10° W 17:19:45 57° S 17:23:23 40° SE visible
27 Nov 10.0 19:14:29 10° W 19:21:34 37° SW 19:21:34 37° SW visible
